Regional Weather Roundup
Issued by NWS

Home | Current Version | Previous Version | Graphics & Text | Print | Product List | Glossary Off
Versions: 1 2 3 4 5 6 7 8 9 10 11 12 13 14 15 16 17 18 19 20 21 22 23 24 25 26 27 28 29 30 31 32 33 34 35 36 37 38 39 40 41 42 43 44 45 46 47 48 49 50

000
ASUS43 KIND 290709
RWRIN

WEATHER ROUNDUP FOR INDIANA
NATIONAL WEATHER SERVICE INDIANAPOLIS IN
300 AM EDT FRI MAY 29 2015

NOTE: "FAIR" INDICATES FEW OR NO CLOUDS BELOW 12,000 FEET WITH NO
SIGNIFICANT WEATHER AND/OR OBSTRUCTIONS TO VISIBILITY.

* - STATION DOES NOT REPORT WEATHER SUCH AS PRECIPITATION OR FOG.

+ - STATION NOT QUALITY CONTROLLED BY THE NATIONAL WEATHER SERVICE.
    USE DATA WITH CAUTION...ESPECIALLY DEWPOINT AND RELATIVE
    HUMIDITY OBSERVATIONS.

INZ001>003-010>013-019-020-290800-
NORTHWEST INDIANA

CITY           SKY/WX    TMP DP  RH WIND       PRES   REMARKS
GARY /AIRPORT/ PTCLDY    72  59  64 SE7       30.07S
KNOX *+        CLEAR     64  59  82 SE6       30.09S
LA PORTE +     CLEAR     69  60  73 SE3       30.11S
MICHIGAN CITY+ PTCLDY    68  55  64 SE3       30.09F
MONTICELLO +   PTCLDY    70  64  82 CALM      30.09F
RENSSELAER +   CLOUDY    72  64  78 S9        30.09S
VALPARAISO     CLEAR     68  58  70 S3        30.09F

$$

LMZ046-743>745-290800-
SOUTHERN LAKE MICHIGAN

STATION/POSITION TIME  TEMP    WIND        PRES    WAVE
                       AIR SEA DIR/SP/G            HT
                 (UTC) (F)     (DEG/KT/KT) (MB)    (FT)
BURNS HARBOR     0700   72     160/  7/ 12 1019.0S
MICHIGAN CITY    0700   71     130/  7/ 10   N/A
5NW MICH CITY    0700   64 55  170/  6/  8   N/A     1

$$

INZ004-005-014>016-021>024-290800-
NORTH CENTRAL INDIANA

CITY           SKY/WX    TMP DP  RH WIND       PRES   REMARKS
GOSHEN         CLEAR     65  58  78 SE8       30.12S
LOGANSPORT +   CLEAR     66  59  77 S5        30.11S
PERU/GRISSOM   CLEAR     67  62  85 S6        30.10S
ROCHESTER +    CLEAR     64  63  94 CALM      30.12S
SOUTH BEND     PTCLDY    67  58  72 SE6       30.11S
WARSAW +       CLEAR     63  61  94 E3        30.12S

$$

INZ006>009-017-018-025>027-290800-
NORTHEAST INDIANA

CITY           SKY/WX    TMP DP  RH WIND       PRES   REMARKS
ANGOLA *+      CLEAR     63  54  72 SE3       30.15S
AUBURN +       PTCLDY    59  55  88 CALM      30.15S
FORT WAYNE     MOCLDY    63  59  87 NE5       30.14S
HUNTINGTON +   CLEAR     62  60  93 CALM      30.13S

$$

INZ028-029-035-036-043>045-051>053-290800-
WEST CENTRAL INDIANA

CITY           SKY/WX    TMP DP  RH WIND       PRES   REMARKS
CRAWFORDSVL +  CLEAR     66  58  77 SE6       30.11S
GREENCASTLE +  CLEAR     64  59  82 CALM      30.11F
LAFAYETTE      PTCLDY    66  62  87 SE5       30.09F
TERRE HAUTE    CLEAR     69  64  84 SE5       30.09F

$$

INZ030>032-037>040-046>048-054>057-064-065-290800-
CENTRAL INDIANA

CITY           SKY/WX    TMP DP  RH WIND       PRES   REMARKS
CP ATTERBURY + CLEAR     61  61 100 CALM      30.12F FOG
FISHERS *+     CLEAR     66  64  94 S3        30.12S
FRANKFORT +    CLEAR     67  62  85 CALM      30.12F
GREENWOOD *+   CLEAR     68  61  77 S5        30.13S
INDIANAPOLIS   PTCLDY    68  62  81 SE8       30.10S
-EAGLE CREEK   CLEAR     68  63  84 S3        30.11S
KOKOMO *+      CLEAR     66  61  82 S7        30.11S
MARION +       CLEAR     65  60  85 S5        30.14S
MT COMFORT *+  CLEAR     66  66 100 S3        30.13F
SHELBYVILLE    CLEAR     69  63  81 CALM      30.12S
ZIONSVILLE +   CLEAR     68  61  77 S3        30.13S

$$

INZ033-034-041-042-049-050-058-059-290800-
EAST CENTRAL INDIANA

CITY           SKY/WX    TMP DP  RH WIND       PRES   REMARKS
MUNCIE         CLEAR     68  63  84 S3        30.13F

$$

INZ060-061-067>069-081>083-085>088-290800-
SOUTHWEST INDIANA

CITY           SKY/WX    TMP DP  RH WIND       PRES   REMARKS
EVANSVILLE     CLEAR     71  65  81 CALM      30.08F
HUNTINGBURG *+ CLEAR     68  63  83 SE5       30.10S
WASHINGTON +   CLEAR     67  64  87 SE6       30.09F

$$

INZ062-063-066-070>080-084-089>092-290800-
SOUTH CENTRAL AND SOUTHEAST INDIANA

CITY           SKY/WX    TMP DP  RH WIND       PRES   REMARKS
BLOOMINGTON    CLEAR     67  63  87 CALM      30.11F
MADISON *+     CLEAR     66  63  88 CALM      30.14S
NORTH VERNON + CLEAR     64  64 100 CALM      30.13S FOG
SEYMOUR +      CLEAR     66  63  88 CALM      30.11S

$$



USA.gov is the U.S. government's official web portal to all federal, state and local government web resources and services.